Starlink 37294

operational
NORAD ID: 68560 Int'l Des: 2026-070 Owner: SPXS Country: US Constellation: starlink
LEOCIRCULAR

Starlink 37294について

説明を読み込み中...

リアルタイム位置

3D地球を読み込み中...

次回通過

高度履歴

Altitude vs Time

uPlot chart will show altitude changes over time

軌道要素

1 68560C 26070T 26093.78868056 .00623280 00000+0 76645-3 0 934
2 68560 53.1620 260.1767 0008621 284.2240 5.4526 16.06801535 10
Epoch: Apr 3, 2026 • Age: 32 hours

現在のステータス

高度 256.2 km
速度 7.75 km/s
衛星直下点 -0.04°S, 126.15°E
打ち上げ日 Apr 2, 2026
運用期間 1 days
タイプ internet

技術仕様

分類 Payload
質量 575.00 kg
乾燥質量 530.00 kg
総質量 575.00 kg
長さ 0.30 m
直径 4.10 m
スパン 29.00 m
形状 Box + pan
製造者 SPXS
バスタイプ Starlink V2MO
フェーズステータス In Orbit
所有者/国 SPXS/US

大規模コンステレーション

Loading constellations...